Simultaneous Nadir Overpasses (SNOs) Predictions

Prediction of SNOs between GOES-17 and TERRA Satellite Orbit:

Table of predicted SNOs for the next 14.0 days since TLE Epoch: 12/3/2022
Index Date Time (GOES-17) GOES-17 Lat,Lon TERRA Lat,Lon Distance(km) Time Diff (sec)
1 12/04/2022 19:16:49 0.01,-137.32 -0.36,-135.72 182.97 80
2 12/05/2022 07:37:18 -0.01,-137.31 -0.72,-140.69 383.70 80
3 12/07/2022 07:18:56 -0.00,-137.29 0.11,-136.90 46.06 80
4 12/09/2022 07:03:13 0.00,-137.27 0.88,-133.09 474.92 80
5 12/09/2022 19:23:35 -0.01,-137.27 0.13,-138.04 87.48 80
6 12/11/2022 19:10:32 -0.01,-137.24 -0.65,-134.24 341.06 80
7 12/12/2022 07:28:21 0.01,-137.23 -0.41,-139.21 225.89 80
8 12/14/2022 07:15:18 0.00,-137.19 0.40,-135.42 202.40 80
9 12/14/2022 19:32:59 -0.00,-137.19 0.68,-140.35 360.38 80
10 12/16/2022 19:19:56 0.00,-137.15 -0.13,-136.56 67.43 80
